Home > Weather > Ede > Past weeks

Flag for Netherlands Past Weather in Ede, Netherlands — Yesterday and Last 2 Weeks

Now
64 °F

Fog.


Feels Like: 64 °F
Forecast: 54 / 66 °F
Wind: No wind

Location: Deelen

Current Time: Jul 30, 2016 at 8:59:47 PM

Latest Report: Jul 30, 2016 at 8:25 PM


Visibility: 5 mi

Pressure: 29.92 "Hg

Humidity: 94%

Dew Point: 63 °F

Location of EdeLocation

Past Weather in Ede — Graph

°F

Ede Temperature Yesterday

Maximum temperature yesterday: 72 °F (at 2:25 PM)
Minimum temperature yesterday: 59 °F (at 4:25 AM)
Average temperature yesterday: 65 °F

High & Low Weather Summary for the Past Weeks

 TemperatureHumidityPressure
High91 °F (Jul 20, 2:55 PM)100% (Jul 18, 1:25 AM)30.27 "Hg (Jul 18, 1:25 AM)
Low50 °F (Jul 26, 6:25 AM)32% (Jul 20, 3:55 PM)29.83 "Hg (Jul 20, 3:55 PM)
Average68 °F78%30.04 "Hg
* Reported Jul 15 7:25 PM — Jul 30 7:55 PM, Ede, Weather by CustomWeather, © 2016

Note: Actual official high and low records may vary slightly from our data, if they occured in-between our weather recording intervals... More about our weather records

Advertising

Ede Weather History for the Previous 24 Hours

Scroll right to see more
 ConditionsComfort  
Time TempWeatherWind HumidityBarometerVisibility
7:55 PM
Sat, Jul 30
64 °FFog.2 mph94%29.92 "Hg5 mi
7:25 PM64 °FFog.2 mph94%29.89 "Hg4 mi
6:55 PM64 °FFog.2 mph94%29.92 "Hg6 mi
6:25 PM64 °FFog.6 mph94%29.92 "Hg5 mi
5:55 PM64 °FDrizzle. Mostly cloudy.8 mph94%29.92 "Hg3 mi
5:25 PM66 °FDrizzle. Mostly cloudy.6 mph88%29.92 "Hg6 mi
4:55 PM66 °FMostly cloudy.3 mph88%29.92 "HgN/A
4:25 PM66 °FOvercast.6 mph83%29.92 "HgN/A
3:55 PM68 °FOvercast.3 mph78%29.92 "HgN/A
3:25 PM68 °FScattered clouds.2 mph78%29.89 "HgN/A
2:55 PM66 °FPartly sunny.5 mph88%29.89 "HgN/A
2:25 PM64 °FDrizzle. Broken clouds.2 mph94%29.92 "Hg4 mi
1:55 PM64 °FDrizzle. Partly sunny.6 mph88%29.92 "Hg4 mi
1:25 PM68 °FFog.5 mph83%29.89 "Hg6 mi
12:55 PM66 °FFog.7 mph88%29.89 "Hg6 mi
12:25 PM64 °FFog.7 mph94%29.89 "Hg3 mi
11:55 AM63 °FFog.7 mph94%29.89 "Hg3 mi
11:25 AM61 °FRain showers. Broken clouds.5 mph100%29.89 "Hg1 mi
10:55 AM61 °FLight rain. Broken clouds.2 mph100%29.89 "Hg2 mi
10:25 AM61 °FDrizzle. Partly sunny.5 mph100%29.89 "Hg2 mi
9:55 AM63 °FFog.6 mph88%29.89 "Hg5 mi
9:25 AM63 °FFog.9 mph88%29.89 "Hg6 mi
8:55 AM61 °FLow clouds.8 mph94%29.89 "HgN/A
8:25 AM61 °FLow clouds.8 mph88%29.86 "HgN/A
7:55 AM61 °FOvercast.9 mph88%29.86 "HgN/A
7:25 AM59 °FOvercast.8 mph94%29.86 "HgN/A
6:55 AM59 °FMostly cloudy.7 mph88%29.86 "HgN/A
6:25 AM59 °FOvercast.7 mph88%29.86 "HgN/A
5:55 AM59 °FMostly cloudy.7 mph88%29.86 "HgN/A
5:25 AM59 °FMostly cloudy.7 mph88%29.86 "HgN/A
4:55 AM59 °FPassing clouds.7 mph88%29.86 "HgN/A
4:25 AM59 °FMostly cloudy.7 mph94%29.86 "HgN/A
3:55 AM59 °FPassing clouds.6 mph94%29.86 "HgN/A
3:25 AM59 °FPassing clouds.7 mph94%29.86 "HgN/A
2:55 AM59 °FPassing clouds.6 mph94%29.86 "HgN/A
2:25 AM61 °FPassing clouds.6 mph88%29.86 "HgN/A
1:55 AM61 °FOvercast.6 mph88%29.86 "HgN/A
1:25 AM61 °FMostly cloudy.5 mph88%29.86 "HgN/A
12:55 AM61 °FMostly cloudy.3 mph88%29.86 "HgN/A
12:25 AM63 °FMostly cloudy.7 mph83%29.89 "HgN/A
11:55 PM
Fri, Jul 29
63 °FOvercast.6 mph83%29.86 "HgN/A
11:25 PM64 °FMostly cloudy.6 mph83%29.86 "HgN/A
10:55 PM64 °FPartly cloudy.6 mph83%29.86 "HgN/A
10:25 PM64 °FBroken clouds.7 mph83%29.86 "HgN/A
9:55 PM64 °FCloudy.6 mph83%29.86 "Hg4 mi
9:25 PM64 °FOvercast.6 mph83%29.86 "HgN/A
8:55 PM64 °FPartly sunny.8 mph83%29.86 "HgN/A
8:25 PM66 °FMostly cloudy.8 mph78%29.86 "HgN/A
Weather by CustomWeather, © 2016

See weather overviewHow to use our weather pages